Regional Weather Roundup
Issued by NWS San Angelo, TX

Home | Current Version | Previous Version | Text Only | Print | Product List | Glossary On
Versions: 1 2 3 4 5 6 7 8 9 10 11 12 13 14 15 16 17 18 19 20 21 22 23 24 25 26 27 28 29 30 31 32 33 34 35 36 37 38 39 40 41 42 43 44 45 46 47 48 49 50
000
ASUS44 KSJT 280002
RWRSJT
WEST CENTRAL TEXAS REGIONAL WEATHER ROUNDUP
NATIONAL WEATHER SERVICE SAN ANGELO TX
700 PM CDT TUE JUN 27 2017

NOTE: "FAIR" INDICATES FEW OR NO CLOUDS BELOW 12,000 FEET WITH NO
SIGNIFICANT WEATHER AND/OR OBSTRUCTIONS TO VISIBILITY.

TXZ049-054-064>066-071>073-076>078-098-099-113-114-127-128-139-140-
154-155-168>170-280100
...LOCATIONS ACROSS WEST CENTRAL TEXAS...

CITY           SKY/WX    TMP DP  RH WIND       PRES   REMARKS
SAN ANGELO     FAIR      90  61  37 E14       29.92F
ABILENE        FAIR      88  64  44 SE15      29.93F
DYESS AFB      MOSUNNY   89  66  45 SE14G20   29.91F
JUNCTION       FAIR      87  63  44 E16       29.94F
SWEETWATER     FAIR      88  59  37 S10       29.97F
BROWNWOOD      FAIR      86  66  51 SE9       29.94S
COLEMAN        MOCLDY    91  60  35 SE14      29.94F
SONORA         FAIR      90  61  37 SE12      29.98S
OZONA            N/A     88  57  35 SE8       29.96F
BRADY          NOT AVBL
$$

TEXAS PANHANDLE/OKLAHOMA PANHANDLE

CITY           SKY/WX    TMP DP  RH WIND       PRES   REMARKS
AMARILLO       NOT AVBL
BORGER         FAIR      92  51  24 S17G28    29.86F
CANADIAN       FAIR      93  57  30 S21       29.84F
DALHART        MOSUNNY   87  54  32 S18G25    29.88F
DUMAS          FAIR      88  54  31 S23       29.88F
GUYMON         NOT AVBL
HEREFORD       FAIR      90  51  26 S21G28    29.93F
PAMPA          FAIR      92  53  26 S21G26    29.91S
PERRYTON       FAIR      93  55  27 S29       29.83F
$$

SOUTHERN PANHANDLE/SOUTH PLAINS/ROLLING PLAINS

CITY           SKY/WX    TMP DP  RH WIND       PRES   REMARKS
LUBBOCK        PTSUNNY   89  54  30 S16       29.94F
SNYDER         FAIR      89  61  39 SE15      29.95S
CHILDRESS      FAIR      92  60  34 SE20G26   29.87F
SEMINOLE       FAIR      87  53  31 S12       29.97F
$$

PERMIAN BASIN

CITY           SKY/WX    TMP DP  RH WIND       PRES   REMARKS
MIDLAND        FAIR      90  58  33 S13       29.93F
ODESSA         FAIR      90  57  32 SE15G22   29.95F
WINK           FAIR      94  50  22 SE14      29.90F
$$

FAR WEST/SOUTHWEST MOUNTAINS/TRANS PECOS

CITY           SKY/WX    TMP DP  RH WIND       PRES   REMARKS
ALPINE         FAIR      89  52  28 E10G16    30.08S
DRYDEN           N/A     92  62  36 E18G24    29.90F
EL PASO        MOSUNNY   95  51  22 SE7       29.93F
FORT STOCKTON  FAIR      93  53  25 SE14      29.93F
GUADALUPE PASS NOT AVBL
MARFA          CLOUDY    84  53  34 S12       30.06S
PECOS          FAIR      94  50  22 E7        29.89F
$$

DALLAS/FORT WORTH METROPLEX

CITY           SKY/WX    TMP DP  RH WIND       PRES   REMARKS
DFW AIRPORT    PTSUNNY   77  72  84 SE5       29.90F
FTW MEACHAM    FAIR      84  69  60 E10       29.90F
DAL-EXECUTIVE  FAIR      83  76  79 E7        29.92F
GRAND PRAIRIE  SUNNY     86  68  54 E12       29.93F
ADDISON        MOSUNNY   79  68  69 E5        29.93F
MESQUITE       PTCLDY    82  72  69 CALM      29.93F
LANCASTER      FAIR      82  74  77 NE6       29.93F
$$

NORTH CENTRAL TEXAS

CITY           SKY/WX    TMP DP  RH WIND       PRES   REMARKS
SHRMAN/DENISON FAIR      84  67  56 SE12      29.95F
GAINESVILLE    FAIR      83  67  57 SE9       29.95F
BRIDGEPORT     FAIR      79  63  58 S7        29.93F
DENTON         FAIR      79  70  74 SE5       29.93F
WAXAHACHIE     FAIR      86  73  64 E5        29.93S
GRANBURY       FAIR      91  66  44 SE10      29.93F
$$

WESTERN NORTH TEXAS

CITY           SKY/WX    TMP DP  RH WIND       PRES   REMARKS
WICHITA FALLS  FAIR      88  68  51 SE12      29.89F
VERNON         FAIR      92  54  27 S16       29.88F
BRECKENRIDGE   FAIR      90  65  42 SE12      29.92S
COMANCHE       FAIR      85  68  57 SE7       29.95S
$$

CENTRAL AND SOUTH CENTRAL TEXAS

CITY           SKY/WX    TMP DP  RH WIND       PRES   REMARKS
AUSTIN/BERGSTM PTSUNNY   79  70  74 SW6       29.94F
WACO           FAIR      87  72  60 S18       29.92S
HILLSBORO      FAIR      88  71  57 SE9       29.92F
TEMPLE         FAIR      86  70  58 SE10      29.94F
KILLEEN-GRAY   FAIR      85  67  54 E16       29.93
FORT HOOD      FAIR      84  65  53 SE13G23   29.91
GEORGETOWN     NOT AVBL
LAGO VISTA     FAIR      80  68  67 S9G22     29.98R
SAN MARCOS     MOSUNNY   73  72  94 S5        29.96F
NEW BRAUNFELS  LGT RAIN  75  71  87 NE3       29.95F
RANDOLPH AFB   FAIR      77  71  81 E8        29.95
SAN ANTONIO    PTSUNNY   77  70  79 E13       29.96R
STINSON        FAIR      79  68  69 SE12      29.92F
PLEASANTON     NOT AVBL
LA GRANGE      FAIR      77  76  95 CALM      29.92S
GIDDINGS       FAIR      79  70  73 SE6       29.95S
$$

EAST TEXAS

CITY           SKY/WX    TMP DP  RH WIND       PRES   REMARKS
PARIS            N/A     84  70  62 SE8       29.96S
CLARKSVILLE    NOT AVBL
TYLER          FAIR      86  70  58 SE12      29.94S
LONGVIEW       FAIR      86  71  60 E9        29.93F
PALESTINE      MOCLDY    89  72  57 E6        29.94S
NACOGDOCHES    FAIR      84  72  65 E7        29.93R
$$

TEXAS HILL COUNTRY AND EDWARDS PLATEAU

CITY           SKY/WX    TMP DP  RH WIND       PRES   REMARKS
LLANO          NOT AVBL
HORSESHOE BAY  FAIR      81  69  67 MISG      29.95R
KERRVILLE      CLOUDY    80  71  73 S9        29.98R
FREDERICKSBRG  CLOUDY    78  68  72 S12       29.97S
ROCKSPRINGS    FAIR      84  61  45 S10       30.00R
HONDO          TSTM      75  71  87 N10       29.95R
UVALDE         FAIR      84  71  66 E9        29.92S
DEL RIO        FAIR      90  66  45 SE13      29.86F
$$

SOUTHEAST TEXAS

CITY           SKY/WX    TMP DP  RH WIND       PRES   REMARKS
COLLEGE STN    FAIR      83  73  72 SE8       29.94S
CALDWELL       NOT AVBL
CROCKETT       NOT AVBL
BRENHAM        FAIR      83  72  67 SE7       29.95R
HUNTSVILLE     LGT RAIN  74  69  85 S6        29.97R
CONROE         FAIR      83  70  64 S6        29.94S
HOUSTON BUSH   PTSUNNY   83  72  69 SE10      29.93F
HOUSTON HOBBY  PTSUNNY   82  71  69 E8        29.93S
PERLAND        NOT AVBL
WHARTON        FAIR      79  72  80 E3        29.93S
$$

THE UPPER TEXAS COAST

CITY           SKY/WX    TMP DP  RH WIND       PRES   REMARKS
ORANGE         MOCLDY    83  74  73 SE6       29.97S
PORT ARTHUR    FAIR      82  73  74 SE7       29.95S
GALVESTON      FAIR      80  75  84 E9        29.93F
ANGLETON       FAIR      80  75  84 E7        29.92F
BAY CITY       LGT RAIN  79  74  85 CALM      29.93R
$$

TEXAS COASTAL BEND, RIO GRANDE PLAINS DEEP SOUTH TEXAS

CITY           SKY/WX    TMP DP  RH WIND       PRES   REMARKS
VICTORIA       FAIR      75  73  93 N7        29.92F
BEEVILLE       FAIR      81  74  78 NE9       29.90F
ROCKPORT       FAIR      83  72  69 E12       29.89S
PORT ARANSAS   FAIR      81  75  80 E9        29.88F
PORT LAVACA    FAIR      81  75  83 CALM      29.91F
CORPUS CHRISTI PTSUNNY   87  72  60 E15       29.88F
KINGSVILLE NAS FAIR      85  74  69 NE13      29.87F
COTULLA        FAIR      86  70  58 E12       29.88F
LAREDO         FAIR      86  71  60 E16       29.86F
BROWNSVILLE    FAIR      83  76  79 E12       29.82F
PORT ISABEL    FAIR      85  76  74 E13       29.83F
HEBBRONVILLE   FAIR      83  68  60 E16G23    29.88F
MCALLEN        PTSUNNY   89  73  59 E15       29.82F
WESLACO        PTSUNNY   86  73  63 E8        29.82S
FALFURRIAS     FAIR      85  70  60 E16       29.86S
EDINBURG       MOCLDY    88  72  58 E13G18    29.83S
$$



USA.gov is the U.S. government's official web portal to all federal, state and local government web resources and services.